Regional Weather Roundup
Issued by NWS

Home | Current Version | Previous Version | Text Only | Print | Product List | Glossary Off
Versions: 1 2 3 4 5 6 7 8 9 10 11 12 13 14 15 16 17 18 19 20 21 22 23 24 25 26 27 28 29 30 31 32 33 34 35 36 37 38 39 40 41 42 43 44 45 46 47 48 49 50

000
ASUS43 KMPX 010110
RWRMN
WEATHER ROUNDUP FOR MINNESOTA
NATIONAL WEATHER SERVICE TWIN CITIES/CHANHASSEN MN
800 PM CDT TUE MAY 31 2016


NOTE: "FAIR" INDICATES FEW OR NO CLOUDS BELOW 12,000 FEET WITH NO
SIGNIFICANT WEATHER AND/OR OBSTRUCTIONS TO VISIBILITY. N/A MEANS
CURRENT SKY AND/OR WEATHER CONDITIONS ARE NOT AVAILABLE.

MNZ060>063-068>070-010200-
   Twin Cities Metro

CITY           SKY/WX    TMP DP  RH WIND       PRES   REMARKS
TWIN CITIES    CLOUDY    72  57  59 S7        29.84R
ST PAUL        CLOUDY    70  61  73 SE7       29.84R
CRYSTAL        PTCLDY    73  50  44 W7        29.82R
BLAINE         MOCLDY    73  59  60 S5        29.83R
EDEN PRAIRIE   CLOUDY    74  49  41 W6        29.83R
SOUTH ST PAUL  MOCLDY    70  61  73 SE5       29.84S
LAKE ELMO      FAIR      68  63  83 S7        29.86R
$$
MNZ001>005-007-008-013>017-022>024-027-028-010200-
   Northwest Minnesota

CITY           SKY/WX    TMP DP  RH WIND       PRES   REMARKS
BEMIDJI        PTCLDY    65  45  48 S9G17     29.75S
HALLOCK        SUNNY     64  54  68 SE12      29.65F
ROSEAU         PTSUNNY   61  55  82 E8        29.72S
WARROAD        CLOUDY    57  54  88 E15       29.75S
THIEF RVR FALL PTSUNNY   64  48  55 S12       29.70S
CROOKSTON      PTSUNNY   61  52  72 W8        29.67F
FOSSTON        MOCLDY    64  50  59 SE9       29.71F
DETROIT LAKES  PTCLDY    64  45  48 S12G17    29.73S
MOORHEAD       CLOUDY    66  46  48 S10       29.67F
PARK RAPIDS    CLEAR     66  44  45 S10       29.75F
MAHNOMEN       FAIR      64  47  53 S16       29.70S
$$
MNZ006-009>011-018-025>026-010200-
   North Central Minnesota

CITY           SKY/WX    TMP DP  RH WIND       PRES   REMARKS
BAUDETTE       CLOUDY    56  53  90 E12       29.77S
FLAG ISLAND    CLOUDY    54  52  94 E9        29.76S
INTL FALLS     CLOUDY    53  52  96 SE8       29.82R FOG
WASKISH        CLEAR     61  57  88 E10       29.76S
BIG FORK       CLOUDY    57  54  88 SE5       29.82R
LONGVILLE      CLEAR     66  52  59 S3        29.78S
GRAND RAPIDS   CLOUDY    55  53  93 NE8       29.84R
CRANE LAKE     CLOUDY    52  50  93 CALM      29.87S
ORR            CLOUDY    54  52  94 SE6       29.82R
COOK           CLOUDY    54  52  94 SE8       29.85R
WALKER         FAIR      65  47  51 S7        29.76S
$$
MNZ012-019>021-037-010200-
   Northeast Minnesota

CITY           SKY/WX    TMP DP  RH WIND       PRES   REMARKS
DULUTH         CLOUDY    45  44  97 E8        29.89R FOG
ELY            CLOUDY    52  48  87 SE6       29.88R
HIBBING        CLOUDY    52  50  93 SE12      29.85R
EVELETH        CLOUDY    52  50  93 E7        29.88R
DULUTH HARBOR  CLOUDY    45  43  93 NE20G25   29.92S
TWO HARBORS    CLOUDY    46  43  87 NE9G17    29.89S
SILVER BAY     RAIN      46  43  87 NE9G17    29.91S
GRAND MARAIS     N/A     50  44  80 NE14      29.94S
G MARAIS ARPRT LGT RAIN  46  43  87 NE10      29.94S
$$
MNZ029>031-032-039>041-046>048-054>057-064-010200-
   West Central Minnesota

CITY           SKY/WX    TMP DP  RH WIND       PRES   REMARKS
FERGUS FALLS   CLOUDY    66  48  52 SW17      29.69F
WHEATON        PTCLDY    70  48  46 SW17G23   29.75S
MORRIS         CLOUDY    70  48  46 S13       29.75F
ALEXANDRIA     MOCLDY    67  47  48 S9        29.78F
ELBOW LAKE     CLOUDY    66  48  53 S13       29.74F
WADENA         MOCLDY    64  48  55 S7        29.75F
GLENWOOD       MOCLDY    64  52  63 S8        29.79F
APPLETON       MOCLDY    72  43  35 W20G25    29.77S
BENSON         PTCLDY    70  45  40 SW12      29.78S
ORTONVILLE     CLOUDY    70  45  40 W13G22    29.77R
MADISON        PTCLDY    70  43  37 W15G24    29.79S
WILLMAR        FAIR      72  48  43 SW6       29.82S
$$
MNZ033>034-036-042>043-049>051-058-059-010200-
   Central Minnesota

CITY           SKY/WX    TMP DP  RH WIND       PRES   REMARKS
ST CLOUD       CLEAR     70  47  43 SW8       29.82R
SAUK CENTRE    FAIR      67  49  51 S8        29.80S
PAYNESVILLE    CLEAR     69  47  44 S6        29.82S
AITKIN         CLEAR     70  48  46 SW3       29.80R
PINE RIVER     CLEAR     66  50  55 S7        29.82S
BRAINERD       CLEAR     67  49  52 S8        29.80R
STAPLES        CLEAR     66  46  48 S8        29.78S
LONG PRAIRIE   MOCLDY    68  48  49 SE10      29.80S
LITTLE FALLS   CLEAR     68  45  42 S5        29.81S
LITCHFIELD     CLEAR     72  48  43 CALM      29.83S
BUFFALO        CLEAR     71  49  45 SW3       29.84R
MAPLE LAKE     CLEAR     71  52  51 CALM      29.84R
HUTCHINSON     CLEAR     71  51  49 CALM      29.85R
$$
MNZ037-044-045-052-053-010200-
   East Central Minnesota

CITY           SKY/WX    TMP DP  RH WIND       PRES   REMARKS
PRINCETON      CLEAR     72  52  49 SW3       29.83R
MORA           CLOUDY    70  54  56 SW5       29.84R
CAMBRIDGE        N/A     73  55  53 SW6       29.81R
RUSH CITY      CLOUDY    69  57  65 S6        29.83S
MOOSE LAKE     CLOUDY    45  43  93 NE5       29.86S FOG
HINCKLEY       FAIR      55  52  88 NE5       29.84S
CLOQUET        CLOUDY    45  41  87 E10G18    29.88S
MCGREGOR       CLOUDY    50  48  93 E10       29.85R
$$
MNZ071>073-080-081-089-090-097-098-010200-
   Southwest Minnesota

CITY           SKY/WX    TMP DP  RH WIND       PRES   REMARKS
MONTEVIDEO     CLOUDY    70  46  43 W12       29.81S
GRANITE FALLS  MOCLDY    72  49  44 SW13      29.83S
CANBY          MOCLDY    74  46  36 SW15      29.82R
MARSHALL       MOCLDY    71  47  42 SW14      29.82F
REDWOOD FALLS  CLEAR     72  47  40 SW13      29.83R
OLIVIA         CLEAR     70  45  40 SW9       29.82S
PIPESTONE      CLEAR     68  48  49 SW9       29.86S
WINDOM         CLEAR     70  46  43 CALM      29.87S
WORTHINGTON    CLEAR     69  50  50 SW8       29.89R
JACKSON        CLEAR     70  45  40 SW6       29.89S
TRACY          CLEAR     70  50  48 SW9       29.85S
SLAYTON        PTCLDY    70  45  40 SW10      29.87S
$$
MNZ065>067-074>077-082>085-091>093-010200-
   South Central Minnesota

CITY           SKY/WX    TMP DP  RH WIND       PRES   REMARKS
MANKATO        CLOUDY    72  50  46 W8        29.86R
NEW ULM        CLEAR     70  52  52 SW8       29.86R
ST JAMES       CLEAR    N/A N/A N/A SW7       29.88R
FAIRMONT       CLEAR     70  50  49 W12       29.88R
GLENCOE        CLEAR     73  51  47 W5        29.84R
FARIBAULT      PTCLDY    70  61  73 S3        29.86S
OWATONNA       CLOUDY    70  59  68 S5        29.87R
WASECA         PTCLDY    68  61  77 S10       29.88R
ALBERT LEA     CLOUDY    70  57  64 CALM      29.88R
$$
MNZ078>079-086>088-094>096-010200-
   Southeast Minnesota

CITY           SKY/WX    TMP DP  RH WIND       PRES   REMARKS
ROCHESTER      MOCLDY    66  63  90 SW3       29.90R
RED WING       CLOUDY    66  64  94 CALM      29.85S
STANTON        CLOUDY    69  61  75 S3        29.85R
DODGE CENTER   CLOUDY    66  63  88 SW6       29.89R
WINONA         DRIZZLE   63  61  94 SE5       29.88F
AUSTIN         CLOUDY    66  61  82 CALM      29.89R
PRESTON        CLOUDY    63  61  93 SE7       29.91
$$
ABBREVIATIONS USED IN REMARKS
   TC - TEMPERATURES IN CELSIUS
  WCI - WIND CHILL INDEX
   HX - HEAT INDEX
  VSB - VISIBILITY
$$




USA.gov is the U.S. government's official web portal to all federal, state and local government web resources and services.